This is the latest recevied weather packets stored in our database for station/object OE-11073. If no packets are shown the sender has not sent any weather packets the latest 10 day(s).
| Time | Temp. | Humidity | Pressure | Rain* | Wind** | Luminosity | Snow |
|---|---|---|---|---|---|---|---|
| 1787726110 | 14.44° C | 89% | - | 0 mm | - | 84 W/m² | - |
| 1787725510 | 14.44° C | 88% | - | 0 mm | - | 77 W/m² | - |
| 1787724682 | 14.44° C | 89% | - | 0 mm | - | 46 W/m² | - |
| 1787724310 | 14.44° C | 90% | - | 0 mm | - | 46 W/m² | - |
| 1787723709 | 14.44° C | 91% | - | 0 mm | - | 31 W/m² | - |
| 1787722882 | 14.44° C | 91% | - | 0 mm | - | 23 W/m² | - |
| 1787722510 | 14.44° C | 89% | - | 0 mm | - | 15 W/m² | - |
| 1787721910 | 14.44° C | 90% | - | 0 mm | - | 23 W/m² | - |
| 1787721082 | 14.44° C | 91% | - | 0 mm | - | 15 W/m² | - |
| 1787720710 | 14.44° C | 94% | - | 0 mm | - | 8 W/m² | - |
| 1787720110 | 14.44° C | 91% | - | 0 mm | - | 8 W/m² | - |
| 1787719283 | 14.44° C | 92% | - | 0 mm | - | 0 W/m² | - |
| 1787718910 | 13.89° C | 91% | - | 0 mm | - | 0 W/m² | - |
| 1787718309 | 14.44° C | 90% | - | 0 mm | - | 0 W/m² | - |
| 1787717482 | 14.44° C | 90% | - | 0 mm | - | 0 W/m² | - |
| 1787717110 | 14.44° C | 91% | - | 0 mm | - | 0 W/m² | - |
| 1787716509 | 14.44° C | 91% | - | 0 mm | - | 0 W/m² | - |
| 1787715910 | 14.44° C | 91% | - | 0 mm | - | 0 W/m² | - |
| 1787715309 | 14.44° C | 92% | - | 0 mm | - | 0 W/m² | - |
| 1787714710 | 14.44° C | 92% | - | 0 mm | - | 0 W/m² | - |
| 1787713882 | 14.44° C | 92% | - | 0 mm | - | 0 W/m² | - |
| 1787713510 | 14.44° C | 91% | - | 0 mm | - | 0 W/m² | - |
| 1787712910 | 14.44° C | 91% | - | 0 mm | - | 0 W/m² | - |
| 1787712082 | 14.44° C | 90% | - | 0 mm | - | 0 W/m² | - |
| 1787711709 | 14.44° C | 88% | - | 0 mm | - | 0 W/m² | - |
* Rain latest hour (hover to see other rain measurements)
** Current wind speed in m/s (hover to see current wind gust speed)